SILO ALERT LOG
| Silo ID | Alert Type | Alert Message | Silo Type | Points | Depth (mm) | Strength | Temperature (°C) | Humidity (%) | Height (mm) | Volume (㎥) | Weight (t) | Flag | Time |
|---|---|---|---|---|---|---|---|---|---|---|---|---|---|
| DJSAD03 | Humidity | 습도센서 측정값이 80% 초과 | 평 | 459 | 1482 | 5749 | 4.4 | 84.5 | 7297 | 302.098 | 190.986 | 0 | 2024-01-11 17:39:39.000 |
| DJSAD02 | Humidity | 습도센서 측정값이 80% 초과 | 평 | 390 | 1132 | 4357 | 3.5 | 86.7 | 7647 | 316.573 | 200.138 | 11 | 2024-01-11 17:39:38.000 |
| DJSSD04 | Temperature | 온도센서 상태 이상 | 평 | 0 | 8200 | 0 | -999 | -999 | -120 | -16.702 | 0 | 31 | 2024-01-11 17:39:33.000 |
| DJSSD05 | Temperature | 온도센서 측정값이 0도 미만 | 평 | 841 | 2550 | 4893 | -45.4 | 43.7 | 5529 | 769.644 | 486.569 | 0 | 2024-01-11 17:39:33.000 |
| DJHNR01 | Humidity | 습도센서 측정값이 80% 초과 | 호퍼 | 471 | 4245 | 4591 | 8.8 | 99.9 | 11134 | 477.474 | 301.859 | 13 | 2024-01-11 17:39:33.000 |
| DJSAD12 | Humidity | 습도센서 측정값이 80% 초과 | 평 | 0 | 7700 | 0 | 6.7 | 85.9 | -120 | -17.075 | 0 | 31 | 2024-01-11 17:39:33.000 |
| DJDJD04 | Humidity | 습도센서 측정값이 80% 초과 | 평 | 279 | 4210 | 4369 | 5.5 | 81.2 | 3469 | 420.299 | 265.713 | 11 | 2024-01-11 17:39:32.000 |
| DJSSD01 | Humidity | 습도센서 측정값이 80% 초과 | 평 | 801 | 2561 | 4641 | 6.7 | 82.9 | 5518 | 768.083 | 485.582 | 0 | 2024-01-11 17:39:32.000 |
| DJSSD09 | Temperature | 온도센서 측정값이 0도 미만 | 평 | 121 | 2840 | 2579 | -45.4 | 0 | 4839 | 673.507 | 425.791 | 11 | 2024-01-11 17:39:31.000 |
| DJSAD07 | Humidity | 습도센서 측정값이 80% 초과 | 평 | 274 | 2355 | 3188 | 5.4 | 82.8 | 5224 | 743.38 | 469.965 | 11 | 2024-01-11 17:39:31.000 |
| DJSAD18 | Humidity | 습도센서 측정값이 80% 초과 | 평 | 115 | 1415 | 5825 | 6.1 | 80.8 | 6164 | 613.809 | 388.05 | 11 | 2024-01-11 17:39:30.000 |
| DJSSD12 | Temperature | 온도센서 상태 이상 | 호퍼 | 0 | 11350 | 0 | -999 | -999 | -120 | 0 | 0 | 31 | 2024-01-11 17:39:25.000 |
| DJHNR03 | Temperature | 온도센서 상태 이상 | 호퍼 | 0 | 15500 | 0 | -999 | -999 | -119 | 0 | 0 | 31 | 2024-01-11 17:39:24.000 |
| DJHNR12 | Humidity | 습도센서 측정값이 80% 초과 | 호퍼 | 0 | 10500 | 0 | 5.6 | 81.8 | -120 | 0 | 0 | 31 | 2024-01-11 17:39:23.000 |
| DJSAD02 | Humidity | 습도센서 측정값이 80% 초과 | 평 | 380 | 1134 | 4351 | 3.5 | 86.7 | 7645 | 316.492 | 200.086 | 11 | 2024-01-11 16:39:39.000 |
| DJSAD08 | Humidity | 습도센서 측정값이 80% 초과 | 평 | 218 | 1762 | 4160 | 12.7 | 81.9 | 5817 | 827.796 | 523.333 | 29 | 2024-01-11 16:39:39.000 |
| DJSAD03 | Humidity | 습도센서 측정값이 80% 초과 | 평 | 395 | 1180 | 5566 | 4.4 | 84.5 | 7599 | 314.576 | 198.875 | 29 | 2024-01-11 16:39:39.000 |
| DJSAD01 | Humidity | 습도센서 측정값이 80% 초과 | 평 | 472 | 1553 | 7495 | 3 | 86.3 | 7226 | 299.151 | 189.123 | 0 | 2024-01-11 16:39:39.000 |
| DJHNR01 | Humidity | 습도센서 측정값이 80% 초과 | 호퍼 | 470 | 4211 | 4453 | 8.8 | 99.9 | 11168 | 479.991 | 303.45 | 13 | 2024-01-11 16:39:33.000 |
| DJSSD04 | Temperature | 온도센서 상태 이상 | 평 | 0 | 8200 | 0 | -999 | -999 | -120 | -16.702 | 0 | 31 | 2024-01-11 16:39:33.000 |
[첫 페이지] [9993] [9994] [9995] [9996] 9997 [9998] [9999] [10000] [10001] [마지막 페이지]